Location: Archemont
(49.1579°N, 1.7598°E)
Time: 11:23:25
(UTC+00:00)

deb Explorer IX - Pass Details

Date: 21 April 2024
Orbit: 513 x 891 km, 38.7° (Epoch: 23 May)

Event Time Altitude Azimuth Distance (km) Brightness Sun altitude
Rises 11:15:05 0° 232° (SW) 3,383 ? 52.2°
Reaches altitude 10° 11:17:56 10° 220° (SW) 2,495 ? 52.3°
Maximum altitude 11:22:50 26° 166° (SSE) 1,660 ? 52.5°
Drops below altitude 10° 11:27:53 10° 111° (ESE) 2,576 ? 52.6°
Sets 11:30:51 0° 100° (E) 3,513 ? 52.7°
